Location: Street
(51.1247°N, 2.7429°W)
Time: 09:17:07
(UTC+01:00)

X-37B - Pass Details

Date: 09 August 2021
Orbit: 381 x 393 km, 45.0° (Epoch: 29 August)

Event Time Altitude Azimuth Distance (km) Brightness Sun altitude
Exits shadow 03:13:58 15° 126° (SE) 1,130 2.8 -18.3°
Drops below altitude 10° 03:14:49 10° 114° (ESE) 1,398 3.5 -18.2°
Sets 03:17:07 0° 100° (E) 2,251 4.7 -18.1°
